When you browse on this site, cookies collect data to enhance your experience and personalize the content and advertising you see.
Visit our Privacy Policy to learn more. By continuing to use the site, you agree to this use of cookies and data.
  • en Suisse
  • Liste des pays
  • À 7 jours
  • Température de l'eau
  • Carte météo
  • Widgets météo
  • user-avatar
    Se connecter

    Météo par heure à Llucmajor

    Ce jour, 19 Janvier, Dimanche

    Heure Température Précipitation Vent Pression Humidité
    00:00 +12°C° 0 mm 4 m/s 751 mmHg 86%
    01:00 +11°C° 0 mm 3 m/s 750 mmHg 87%
    02:00 +11°C° 0 mm 3 m/s 749 mmHg 88%
    03:00 +12°C° 0 mm 2 m/s 749 mmHg 88%
    04:00 +12°C° 0.1 mm 2 m/s 748 mmHg 88%
    05:00 +12°C° 0.1 mm 2 m/s 748 mmHg 88%
    06:00 +12°C° 0.1 mm 2 m/s 747 mmHg 88%
    07:00 +11°C° 0.2 mm 3 m/s 747 mmHg 87%
    08:00 +12°C° 0.2 mm 4 m/s 747 mmHg 87%
    09:00 +11°C° 0.2 mm 6 m/s 747 mmHg 86%
    10:00 +11°C° 0.8 mm 7 m/s 747 mmHg 85%
    11:00 +11°C° 0.8 mm 9 m/s 747 mmHg 85%
    12:00 +11°C° 0.8 mm 10 m/s 747 mmHg 85%
    13:00 +9°C° 2.3 mm 11 m/s 747 mmHg 86%
    14:00 +9°C° 2.3 mm 12 m/s 746 mmHg 87%
    15:00 +8°C° 2.3 mm 13 m/s 746 mmHg 88%
    16:00 +8°C° 4.1 mm 12 m/s 746 mmHg 89%
    17:00 +8°C° 4.1 mm 11 m/s 746 mmHg 90%
    18:00 +8°C° 4.1 mm 10 m/s 746 mmHg 91%
    19:00 +8°C° 5.4 mm 11 m/s 746 mmHg 91%
    20:00 +8°C° 5.4 mm 12 m/s 746 mmHg 91%
    21:00 +8°C° 5.4 mm 12 m/s 747 mmHg 92%
    22:00 +8°C° 4.5 mm 12 m/s 747 mmHg 92%
    23:00 +8°C° 4.5 mm 11 m/s 747 mmHg 91%

    Demain, 20 Janvier, Lundi

    Heure Température Précipitation Vent Pression Humidité
    00:00 +8°C° 4.5 mm 11 m/s 748 mmHg 91%
    01:00 +8°C° 2.4 mm 9 m/s 747 mmHg 92%
    02:00 +9°C° 2.4 mm 8 m/s 747 mmHg 92%
    03:00 +10°C° 2.4 mm 7 m/s 747 mmHg 93%
    04:00 +10°C° 3 mm 6 m/s 747 mmHg 92%
    05:00 +10°C° 3 mm 6 m/s 747 mmHg 91%
    06:00 +10°C° 3 mm 5 m/s 747 mmHg 89%
    07:00 +10°C° 2.3 mm 5 m/s 748 mmHg 90%
    08:00 +10°C° 2.3 mm 5 m/s 748 mmHg 90%
    09:00 +11°C° 2.3 mm 4 m/s 748 mmHg 90%
    10:00 +10°C° 1.3 mm 5 m/s 748 mmHg 90%
    11:00 +10°C° 1.3 mm 6 m/s 748 mmHg 89%
    12:00 +10°C° 1.3 mm 6 m/s 748 mmHg 89%
    13:00 +10°C° 1.6 mm 5 m/s 748 mmHg 90%
    14:00 +11°C° 1.6 mm 4 m/s 748 mmHg 90%
    15:00 +11°C° 1.6 mm 3 m/s 748 mmHg 91%
    16:00 +11°C° 1.1 mm 3 m/s 748 mmHg 91%
    17:00 +10°C° 1.1 mm 3 m/s 748 mmHg 91%
    18:00 +10°C° 1.1 mm 3 m/s 748 mmHg 91%
    19:00 +10°C° 0.3 mm 4 m/s 749 mmHg 90%
    20:00 +10°C° 0.3 mm 4 m/s 749 mmHg 89%
    21:00 +10°C° 0.3 mm 4 m/s 749 mmHg 88%
    22:00 +10°C° 0.5 mm 6 m/s 749 mmHg 86%
    23:00 +10°C° 0.5 mm 7 m/s 749 mmHg 84%

    Après-demain, 21 Janvier, Mardi

    Heure Température Précipitation Vent Pression Humidité
    00:00 +11°C° 0.5 mm 9 m/s 749 mmHg 82%
    01:00 +11°C° 0.2 mm 9 m/s 749 mmHg 82%
    02:00 +11°C° 0.2 mm 9 m/s 748 mmHg 83%
    03:00 +11°C° 0.2 mm 9 m/s 748 mmHg 84%
    04:00 +11°C° 0.1 mm 9 m/s 748 mmHg 84%
    05:00 +12°C° 0.1 mm 10 m/s 748 mmHg 84%
    06:00 +12°C° 0.1 mm 10 m/s 747 mmHg 84%
    07:00 +12°C° 0 mm 12 m/s 747 mmHg 82%
    08:00 +13°C° 0 mm 15 m/s 747 mmHg 80%
    09:00 +13°C° 0 mm 17 m/s 748 mmHg 78%
    10:00 +13°C° 0 mm 16 m/s 748 mmHg 76%
    11:00 +13°C° 0 mm 15 m/s 748 mmHg 75%
    12:00 +13°C° 0 mm 15 m/s 748 mmHg 73%
    13:00 +13°C° 0.4 mm 14 m/s 748 mmHg 74%
    14:00 +13°C° 0.4 mm 12 m/s 748 mmHg 75%
    15:00 +13°C° 0.4 mm 11 m/s 748 mmHg 75%
    16:00 +12°C° 0.8 mm 10 m/s 748 mmHg 78%
    17:00 +12°C° 0.8 mm 9 m/s 748 mmHg 80%
    18:00 +12°C° 0.8 mm 8 m/s 748 mmHg 82%
    19:00 +11°C° 0.7 mm 6 m/s 748 mmHg 82%
    20:00 +12°C° 0.7 mm 4 m/s 748 mmHg 81%
    21:00 +12°C° 0.7 mm 3 m/s 748 mmHg 81%
    22:00 +12°C° 0 mm 2 m/s 748 mmHg 75%
    23:00 +12°C° 0 mm 2 m/s 748 mmHg 70%

    22 Janvier, Mercredi

    Heure Température Précipitation Vent Pression Humidité
    00:00 +12°C° 0 mm 2 m/s 749 mmHg 65%
    01:00 +11°C° 0 mm 4 m/s 749 mmHg 69%
    02:00 +10°C° 0 mm 5 m/s 749 mmHg 74%
    03:00 +11°C° 0 mm 6 m/s 749 mmHg 78%
    04:00 +11°C° 0.4 mm 6 m/s 748 mmHg 80%
    05:00 +11°C° 0.4 mm 6 m/s 748 mmHg 82%
    06:00 +11°C° 0.4 mm 6 m/s 748 mmHg 84%
    07:00 +13°C° 0.9 mm 6 m/s 748 mmHg 83%
    08:00 +13°C° 0.9 mm 6 m/s 748 mmHg 82%
    09:00 +14°C° 0.9 mm 6 m/s 748 mmHg 81%
    10:00 +14°C° 0.3 mm 6 m/s 748 mmHg 78%
    11:00 +15°C° 0.3 mm 5 m/s 748 mmHg 75%
    12:00 +15°C° 0.3 mm 5 m/s 748 mmHg 72%
    13:00 +15°C° 0.1 mm 5 m/s 749 mmHg 72%
    14:00 +15°C° 0.1 mm 4 m/s 749 mmHg 72%
    15:00 +14°C° 0.1 mm 4 m/s 749 mmHg 72%
    16:00 +13°C° 0.1 mm 4 m/s 749 mmHg 76%
    17:00 +12°C° 0.1 mm 3 m/s 749 mmHg 80%
    18:00 +11°C° 0.1 mm 3 m/s 749 mmHg 85%
    19:00 +12°C° 0 mm 2 m/s 750 mmHg 84%
    20:00 +12°C° 0 mm 2 m/s 750 mmHg 84%
    21:00 +12°C° 0 mm 2 m/s 751 mmHg 83%
    22:00 +12°C° 0 mm 2 m/s 751 mmHg 82%
    23:00 +10°C° 0 mm 2 m/s 751 mmHg 81%

    23 Janvier, Jeudi

    Heure Température Précipitation Vent Pression Humidité
    00:00 +10°C° 0 mm 2 m/s 751 mmHg 80%
    01:00 +10°C° 0 mm 2 m/s 751 mmHg 78%
    02:00 +10°C° 0 mm 2 m/s 751 mmHg 76%
    03:00 +10°C° 0 mm 2 m/s 751 mmHg 74%
    04:00 +10°C° 0 mm 2 m/s 751 mmHg 72%
    05:00 +10°C° 0 mm 2 m/s 750 mmHg 70%
    06:00 +10°C° 0 mm 2 m/s 750 mmHg 68%
    07:00 +12°C° 0 mm 2 m/s 751 mmHg 66%
    08:00 +13°C° 0 mm 2 m/s 751 mmHg 64%
    09:00 +14°C° 0 mm 2 m/s 751 mmHg 62%
    10:00 +15°C° 0 mm 2 m/s 751 mmHg 60%
    11:00 +16°C° 0 mm 3 m/s 751 mmHg 57%
    12:00 +16°C° 0 mm 3 m/s 751 mmHg 55%
    13:00 +16°C° 0 mm 3 m/s 751 mmHg 56%
    14:00 +16°C° 0 mm 3 m/s 750 mmHg 58%
    15:00 +16°C° 0 mm 3 m/s 750 mmHg 60%
    16:00 +14°C° 0 mm 3 m/s 750 mmHg 63%
    17:00 +13°C° 0 mm 3 m/s 750 mmHg 66%
    18:00 +12°C° 0 mm 3 m/s 750 mmHg 70%
    19:00 +12°C° 0 mm 3 m/s 750 mmHg 70%
    20:00 +12°C° 0 mm 3 m/s 750 mmHg 70%
    21:00 +12°C° 0 mm 3 m/s 750 mmHg 70%
    22:00 +11°C° 0.1 mm 3 m/s 750 mmHg 70%
    23:00 +11°C° 0.1 mm 3 m/s 750 mmHg 71%

    24 Janvier, Vendredi

    Heure Température Précipitation Vent Pression Humidité
    00:00 +10°C° 0.1 mm 4 m/s 749 mmHg 71%
    01:00 +10°C° 0 mm 4 m/s 749 mmHg 73%
    02:00 +10°C° 0 mm 4 m/s 749 mmHg 75%
    03:00 +8°C° 0 mm 4 m/s 749 mmHg 77%
    04:00 +9°C° 0 mm 3 m/s 749 mmHg 79%
    05:00 +9°C° 0 mm 3 m/s 749 mmHg 80%
    06:00 +9°C° 0 mm 3 m/s 749 mmHg 82%
    07:00 +10°C° 0 mm 3 m/s 750 mmHg 80%
    08:00 +11°C° 0 mm 3 m/s 750 mmHg 79%
    09:00 +12°C° 0 mm 3 m/s 751 mmHg 77%
    10:00 +13°C° 0 mm 3 m/s 751 mmHg 71%
    11:00 +14°C° 0 mm 3 m/s 751 mmHg 65%
    12:00 +15°C° 0 mm 4 m/s 751 mmHg 59%
    13:00 +16°C° 0 mm 3 m/s 751 mmHg 60%
    14:00 +14°C° 0 mm 3 m/s 751 mmHg 62%
    15:00 +14°C° 0 mm 3 m/s 751 mmHg 63%
    16:00 +14°C° 0 mm 2 m/s 751 mmHg 68%
    17:00 +13°C° 0 mm 2 m/s 751 mmHg 73%
    18:00 +12°C° 0 mm 2 m/s 751 mmHg 79%
    19:00 +12°C° 0 mm 2 m/s 751 mmHg 80%
    20:00 +12°C° 0 mm 2 m/s 752 mmHg 81%
    21:00 +10°C° 0 mm 2 m/s 752 mmHg 83%
    22:00 +10°C° 0 mm 2 m/s 752 mmHg 83%
    23:00 +10°C° 0 mm 2 m/s 752 mmHg 84%
    Voir plus